Project,Study,Ord_Occ,Event_Num,Cast_ID,Date_Time_UTC,Date_Time_PST,Lat_Dec,Lon_Dec,Sta_ID,Line,Sta,Depth,Pressure,PrQ,Temp1,Temp1Q,Temp2,Temp2Q,TempAve,Salt1,Salt1Q,Salt1_Corr,Salt2,Salt2Q,Salt2_Corr,SaltAve_Corr,Ox1,Ox1Q,Ox1_CruiseCorr,Ox1_StaCorr,Ox2,Ox2Q,Ox2_CruiseCorr,Ox2_StaCorr,OxAve_StaCorr,Ox1uM,Ox1uM_CruiseCorr,Ox1uM_StaCorr,Ox2uM,Ox2uM_CruiseCorr,Ox2uM_StaCorr,OxAveuM_StaCorr,FluorV,FluorQ,EstChl_CruiseCorr,EstChl_StaCorr,ISUSV,ISUSQ,EstNO3_CruiseCorr,EstNO3_StaCorr,SigThetaTS1,SigThetaTS1Q,SigThetaTS2,SigThetaTS2Q,BAT,XMiss,TransQ,pH,pHQ,SPAR,SPARQ,PAR,PARQ,PoT1,PoT2,DynHt,SVA,OxSat1,OxSat2,BTL_Depth,BTL_Temp,SaltB,OxB,OxBuM,Chl-a,Phaeo,NO3,NO2,NH4,PO4,SIL
CalCOFI,2007SR,037,39,2007_037d,19-Jul-2020 22:15:37,19-Jul-2020 14:15:37,33.65679,-118.97520,086.7 040.0,086.7,040.0,2.000,2.014,,21.3808,,21.3834,,21.3821,33.6997,,33.6999,33.6989,,33.7005,33.7002,5.3740,,5.5976,5.5161,3.9685,,5.5328,3.8978,4.7070,234.517,244.3242,194.9550,173.179,408.0503,135.4972,165.2261,0.0610,,0.2925,0.2101,-99.0,,-99.0,-99.0,23.4010,,23.3997,,0.8194,81.4781,,8.185,,1.9926E+03,,7.3984E+01,,21.3804,21.3830,0.0056,,105.672,78.036,2,21.476,33.7044,,242.90,0.382,0.109,0.06,0.00,0.09,0.07,0.57
CalCOFI,2007SR,037,39,2007_037d,19-Jul-2020 22:15:49,19-Jul-2020 14:15:49,33.65678,-118.97520,086.7 040.0,086.7,040.0,3.000,3.021,,21.3953,,21.4106,,21.4030,33.7007,,33.7009,33.7009,,33.7025,33.7017,5.3674,,5.5907,5.5093,3.9704,,5.5373,3.9013,4.7053,234.225,244.0194,194.7198,173.264,407.3361,135.6169,165.1684,0.0589,,0.2678,0.1970,-99.0,,-99.0,-99.0,23.3979,,23.3938,,0.8182,81.5016,,8.185,,1.5320E+03,,4.3484E+01,,21.3947,21.4100,0.0123,,105.568,78.114,,,,,,,,,,,,
CalCOFI,2007SR,037,39,2007_037d,19-Jul-2020 22:15:51,19-Jul-2020 14:15:51,33.65678,-118.97520,086.7 040.0,086.7,040.0,4.000,4.029,,21.4506,,21.4492,,21.4499,33.7018,,33.7020,33.7016,,33.7032,33.7026,5.3610,,5.5840,5.5027,3.9696,,5.5354,3.8998,4.7013,233.953,243.7354,194.5007,173.233,406.6708,135.5732,165.0370,0.0613,,0.2960,0.2120,-99.0,,-99.0,-99.0,23.3836,,23.3838,,0.8158,81.5503,,8.185,,1.5271E+03,,3.7407E+01,,21.4498,21.4484,0.0168,,105.550,78.153,,,,,,,,,,,,
CalCOFI,2007SR,037,39,2007_037d,19-Jul-2020 22:15:53,19-Jul-2020 14:15:53,33.65679,-118.97520,086.7 040.0,086.7,040.0,5.000,5.036,,21.4558,,21.4568,,21.4563,33.7013,,33.7015,33.7011,,33.7027,33.7021,5.3619,,5.5849,5.5037,3.9706,,5.5378,3.9017,4.7027,233.993,243.7772,194.5329,173.274,406.7687,135.6310,165.0820,0.0605,,0.2866,0.2070,-99.0,,-99.0,-99.0,23.3819,,23.3814,,0.8145,81.5765,,8.185,,1.5598E+03,,3.1433E+01,,21.4549,21.4559,0.0213,,105.577,78.182,,,,,,,,,,,,
CalCOFI,2007SR,037,39,2007_037d,19-Jul-2020 22:15:55,19-Jul-2020 14:15:55,33.65680,-118.97520,086.7 040.0,086.7,040.0,6.000,6.043,,21.3468,,21.3731,,21.3600,33.6973,,33.6975,33.6957,,33.6973,33.6974,5.3839,,5.6079,5.5263,3.9799,,5.5600,3.9190,4.7227,234.945,244.7710,195.2997,173.678,409.0971,136.2000,165.7499,0.0639,,0.3266,0.2282,-99.0,,-99.0,-99.0,23.4086,,23.4002,,0.8223,81.4184,,8.186,,1.5366E+03,,2.7578E+01,,21.3456,21.3719,0.0259,,105.799,78.245,,,,,,,,,,,,
CalCOFI,2007SR,037,39,2007_037d,19-Jul-2020 22:15:58,19-Jul-2020 14:15:58,33.65679,-118.97520,086.7 040.0,086.7,040.0,7.000,7.050,,21.2364,,21.2301,,21.2333,33.6952,,33.6954,33.6954,,33.6970,33.6962,5.4005,,5.6253,5.5434,3.9949,,5.5958,3.9470,4.7452,235.664,245.5215,195.8789,174.325,410.8557,137.1111,166.4950,0.0684,,0.3795,0.2564,-99.0,,-99.0,-99.0,23.4372,,23.4390,,0.8265,81.3324,,8.186,,1.5406E+03,,2.4453E+01,,21.2351,21.2288,0.0304,,105.914,78.338,,,,,,,,,,,,
CalCOFI,2007SR,037,39,2007_037d,19-Jul-2020 22:15:59,19-Jul-2020 14:15:59,33.65680,-118.97520,086.7 040.0,086.7,040.0,8.000,8.057,,21.1994,,21.2014,,21.2004,33.6954,,33.6956,33.6952,,33.6968,33.6962,5.4116,,5.6369,5.5549,4.0006,,5.6094,3.9577,4.7563,236.144,246.0226,196.2655,174.572,412.0297,137.4590,166.8623,0.0728,,0.4312,0.2840,-99.0,,-99.0,-99.0,23.4475,,23.4468,,0.8264,81.3345,,8.186,,1.5690E+03,,2.0495E+01,,21.1978,21.1998,0.0348,,106.060,78.409,,,,,,,,,,,,
CalCOFI,2007SR,037,39,2007_037d,19-Jul-2020 22:16:01,19-Jul-2020 14:16:01,33.65680,-118.97520,086.7 040.0,086.7,040.0,9.000,9.065,,21.1309,,21.1361,,21.1335,33.6921,,33.6923,33.6918,,33.6934,33.6929,5.4073,,5.6324,5.5505,4.0063,,5.6230,3.9683,4.7594,235.952,245.8222,196.1109,174.819,411.5601,137.8069,166.9589,0.0786,,0.4994,0.3207,-99.0,,-99.0,-99.0,23.4636,,23.4620,,0.8183,81.4984,,8.187,,1.5966E+03,,2.2392E+01,,21.1291,21.1344,0.0393,,105.843,78.427,,,,,,,,,,,,
CalCOFI,2007SR,037,39,2007_037d,19-Jul-2020 22:16:03,19-Jul-2020 14:16:03,33.65679,-118.97520,086.7 040.0,086.7,040.0,10.000,10.072,,20.9725,,20.9576,,20.9651,33.6943,,33.6945,33.6970,,33.6986,33.6966,5.3311,,5.5528,5.4719,4.0449,,5.7152,4.0403,4.7561,232.619,242.3429,193.4262,176.495,403.4081,140.1673,166.7968,0.0860,,0.5865,0.3679,-99.0,,-99.0,-99.0,23.5082,,23.5142,,0.8101,81.6666,,8.189,,1.7787E+03,,2.7932E+01,,20.9706,20.9557,0.0437,,104.054,78.930,,,,,,,,,,,,
CalCOFI,2007SR,037,39,2007_037d,19-Jul-2020 22:16:06,19-Jul-2020 14:16:06,33.65678,-118.97520,086.7 040.0,086.7,040.0,11.000,11.079,,20.2841,,20.3379,,20.3110,33.6462,,33.6464,33.6433,,33.6449,33.6457,5.6201,,5.8547,5.7698,4.1313,,5.9215,4.2015,4.9857,245.193,255.4689,203.5544,180.245,434.1623,145.4485,174.5015,0.1002,,0.7537,0.4593,-99.0,,-99.0,-99.0,23.6546,,23.6383,,0.8255,81.3531,,8.192,,1.8489E+03,,1.7463E+01,,20.2820,20.3358,0.0480,,108.290,79.685,11,21.105,33.6992,5.640,246.20,0.493,0.139,0.0,0.00,0.11,0.08,0.46
CalCOFI,2007SR,037,39,2007_037d,19-Jul-2020 22:16:08,19-Jul-2020 14:16:08,33.65679,-118.97520,086.7 040.0,086.7,040.0,12.000,12.086,,18.3302,,18.3820,,18.3561,33.5792,,33.5794,33.5707,,33.5723,33.5759,5.8625,,6.1080,6.0197,4.2862,,6.2912,4.4905,5.2551,255.659,266.3943,211.9846,186.918,459.7606,154.8464,183.4155,0.1284,,1.0861,0.6451,-99.0,,-99.0,-99.0,24.1033,,24.0840,,0.8591,80.6722,,8.199,,1.7768E+03,,1.3730E+01,,18.3281,18.3799,0.0521,,108.901,79.691,,,,,,,,,,,,
CalCOFI,2007SR,037,39,2007_037d,19-Jul-2020 22:16:09,19-Jul-2020 14:16:09,33.65680,-118.97520,086.7 040.0,086.7,040.0,13.000,13.093,,17.7180,,17.7705,,17.7443,33.5820,,33.5822,33.5787,,33.5803,33.5813,5.9052,,6.1526,6.0637,4.3401,,6.4199,4.5911,5.3274,257.479,268.2942,213.4506,189.244,464.2121,158.1222,185.7864,0.1448,,1.2796,0.7556,-99.0,,-99.0,-99.0,24.2554,,24.2400,,0.8729,80.3939,,8.196,,1.6871E+03,,1.2538E+01,,17.7158,17.7683,0.0558,,108.429,79.771,,,,,,,,,,,,
CalCOFI,2007SR,037,39,2007_037d,19-Jul-2020 22:16:11,19-Jul-2020 14:16:11,33.65680,-118.97520,086.7 040.0,086.7,040.0,14.000,14.101,,17.4673,,17.4811,,17.4742,33.5758,,33.5760,33.5717,,33.5733,33.5747,5.8768,,6.1230,6.0344,4.3781,,6.5106,4.6620,5.3482,256.230,266.9904,212.4445,190.888,461.1572,160.4375,186.4410,0.1590,,1.4473,0.8527,-99.0,,-99.0,-99.0,24.3109,,24.3045,,0.8810,80.2314,,8.191,,1.7135E+03,,1.1523E+01,,17.4650,17.4787,0.0595,,107.391,80.022,,,,,,,,,,,,
CalCOFI,2007SR,037,39,2007_037d,19-Jul-2020 22:16:13,19-Jul-2020 14:16:13,33.65679,-118.97520,086.7 040.0,086.7,040.0,15.000,15.108,,17.1745,,17.1589,,17.1667,33.5738,,33.5740,33.5776,,33.5792,33.5766,5.8819,,6.1283,6.0397,4.4323,,6.6400,4.7631,5.4014,256.436,267.2054,212.6104,193.233,461.6610,163.7401,188.1753,0.1609,,1.4697,0.8658,-99.0,,-99.0,-99.0,24.3792,,24.3858,,0.8709,80.4340,,8.188,,1.8495E+03,,1.0772E+01,,17.1720,17.1564,0.0631,,106.880,80.516,,,,,,,,,,,,
CalCOFI,2007SR,037,39,2007_037d,19-Jul-2020 22:16:15,19-Jul-2020 14:16:15,33.65678,-118.97520,086.7 040.0,086.7,040.0,16.000,16.115,,16.6882,,16.7265,,16.7074,33.5524,,33.5526,33.5536,,33.5552,33.5539,5.9177,,6.1657,6.0766,4.4862,,6.7687,4.8637,5.4702,257.970,268.8068,213.8461,195.567,465.4130,167.0272,190.4367,0.1541,,1.3894,0.8190,-99.0,,-99.0,-99.0,24.4768,,24.4689,,0.8509,80.8383,,8.185,,1.8662E+03,,9.4414E+00,,16.6857,16.7239,0.0666,,106.511,80.805,,,,,,,,,,,,
CalCOFI,2007SR,037,39,2007_037d,19-Jul-2020 22:16:17,19-Jul-2020 14:16:17,33.65680,-118.97520,086.7 040.0,086.7,040.0,17.000,17.122,,16.2715,,16.3086,,16.2901,33.5499,,33.5501,33.5490,,33.5506,33.5504,5.9377,,6.1866,6.0972,4.5357,,6.8869,4.9561,5.5267,258.816,269.6899,214.5275,197.708,467.4822,170.0424,192.2850,0.1499,,1.3398,0.7903,-99.0,,-99.0,-99.0,24.5711,,24.5619,,0.8466,80.9245,,8.182,,1.8884E+03,,8.0075E+00,,16.2688,16.3059,0.0701,,106.006,81.034,,,,,,,,,,,,
CalCOFI,2007SR,037,39,2007_037d,19-Jul-2020 22:16:19,19-Jul-2020 14:16:19,33.65680,-118.97520,086.7 040.0,086.7,040.0,18.000,18.130,,15.8649,,15.9111,,15.8880,33.5453,,33.5455,33.5410,,33.5426,33.5441,5.9625,,6.2125,6.1227,4.5786,,6.9893,5.0361,5.5794,259.875,270.7954,215.3805,199.561,470.0724,172.6521,194.0163,0.1510,,1.3528,0.7978,-99.0,,-99.0,-99.0,24.6599,,24.6461,,0.8473,80.9106,,8.179,,1.9346E+03,,7.1084E+00,,15.8621,15.9083,0.0734,,105.601,81.163,,,,,,,,,,,,
CalCOFI,2007SR,037,39,2007_037d,19-Jul-2020 22:16:21,19-Jul-2020 14:16:21,33.65679,-118.97520,086.7 040.0,086.7,040.0,19.000,19.137,,15.4710,,15.4585,,15.4648,33.5462,,33.5464,33.5432,,33.5448,33.5456,5.9724,,6.2229,6.1330,4.6270,,7.1048,5.1264,5.6297,260.288,271.2265,215.7132,201.651,471.0825,175.5956,195.6544,0.1574,,1.4284,0.8417,-99.0,,-99.0,-99.0,24.7486,,24.7490,,0.8460,80.9377,,8.175,,1.7903E+03,,6.4449E+00,,15.4681,15.4556,0.0767,,104.961,81.294,,,,,,,,,,,,
CalCOFI,2007SR,037,39,2007_037d,19-Jul-2020 22:16:24,19-Jul-2020 14:16:24,33.65679,-118.97520,086.7 040.0,086.7,040.0,20.000,20.144,,15.0848,,15.0753,,15.0801,33.5437,,33.5439,33.5472,,33.5488,33.5464,5.9700,,6.2204,6.1305,4.6690,,7.2051,5.2048,5.6677,260.159,271.0919,215.6093,203.462,470.7670,178.1461,196.8777,0.1795,,1.6896,0.9954,-99.0,,-99.0,-99.0,24.8315,,24.8363,,0.8481,80.8947,,8.172,,1.8477E+03,,5.5839E+00,,15.0818,15.0722,0.0798,,104.115,81.412,20,15.879,33.5745,6.241,272.45,1.007,0.366,0.0,0.00,0.07,0.17,0.40
CalCOFI,2007SR,037,39,2007_037d,19-Jul-2020 22:16:26,19-Jul-2020 14:16:26,33.65680,-118.97520,086.7 040.0,086.7,040.0,21.000,21.151,,14.8665,,14.8929,,14.8797,33.5521,,33.5523,33.5525,,33.5541,33.5532,5.9599,,6.2098,6.1201,4.6811,,7.2340,5.2273,5.6737,259.704,270.6169,215.2428,203.983,469.6541,178.8798,197.0613,0.2084,,2.0316,1.2013,-99.0,,-99.0,-99.0,24.8854,,24.8800,,0.8404,81.0509,,8.168,,2.0336E+03,,4.9017E+00,,14.8633,14.8897,0.0829,,103.492,81.330,,,,,,,,,,,,
CalCOFI,2007SR,037,39,2007_037d,19-Jul-2020 22:16:27,19-Jul-2020 14:16:27,33.65680,-118.97520,086.7 040.0,086.7,040.0,22.000,22.159,,14.7422,,14.7552,,14.7487,33.5608,,33.5610,33.5622,,33.5638,33.5624,5.9526,,6.2022,6.1125,4.6922,,7.2605,5.2481,5.6803,259.379,270.2776,214.9810,204.457,468.8592,179.5474,197.2642,0.2181,,2.1466,1.2717,-99.0,,-99.0,-99.0,24.9188,,24.9172,,0.8283,81.2955,,8.163,,2.2407E+03,,4.3776E+00,,14.7390,14.7519,0.0860,,103.115,81.303,,,,,,,,,,,,
CalCOFI,2007SR,037,39,2007_037d,19-Jul-2020 22:16:29,19-Jul-2020 14:16:29,33.65680,-118.97520,086.7 040.0,086.7,040.0,23.000,23.166,,14.7047,,14.7017,,14.7032,33.5671,,33.5673,33.5711,,33.5727,33.5700,5.9347,,6.1835,6.0941,4.6920,,7.2600,5.2477,5.6709,258.598,269.4624,214.3519,204.449,466.9490,179.5361,196.9440,0.2208,,2.1786,1.2914,-99.0,,-99.0,-99.0,24.9318,,24.9355,,0.8200,81.4641,,8.159,,2.3127E+03,,4.0856E+00,,14.7013,14.6983,0.0891,,102.733,81.218,,,,,,,,,,,,
CalCOFI,2007SR,037,39,2007_037d,19-Jul-2020 22:16:31,19-Jul-2020 14:16:31,33.65680,-118.97520,086.7 040.0,086.7,040.0,24.000,24.173,,14.6795,,14.6811,,14.6803,33.5716,,33.5718,33.5748,,33.5764,33.5741,5.9143,,6.1622,6.0731,4.6902,,7.2557,5.2443,5.6587,257.704,268.5291,213.6318,204.368,464.7624,179.4220,196.5269,0.2159,,2.1205,1.2557,-99.0,,-99.0,-99.0,24.9407,,24.9429,,0.8125,81.6168,,8.155,,2.5467E+03,,3.9014E+00,,14.6760,14.6775,0.0921,,102.330,81.155,,,,,,,,,,,,
CalCOFI,2007SR,037,39,2007_037d,19-Jul-2020 22:16:34,19-Jul-2020 14:16:34,33.65680,-118.97520,086.7 040.0,086.7,040.0,25.000,25.180,,14.6643,,14.6641,,14.6642,33.5753,,33.5755,33.5787,,33.5803,33.5779,5.8770,,6.1232,6.0346,4.6855,,7.2445,5.2356,5.6351,256.078,266.8317,212.3221,204.161,460.7854,179.1305,195.7263,0.2118,,2.0719,1.2259,-99.0,,-99.0,-99.0,24.9468,,24.9495,,0.8015,81.8422,,8.152,,2.4739E+03,,3.5592E+00,,14.6606,14.6604,0.0951,,101.655,81.048,,,,,,,,,,,,
CalCOFI,2007SR,037,39,2007_037d,19-Jul-2020 22:16:35,19-Jul-2020 14:16:35,33.65680,-118.97520,086.7 040.0,086.7,040.0,26.000,26.188,,14.6621,,14.6614,,14.6618,33.5813,,33.5815,33.5847,,33.5863,33.5839,5.8348,,6.0791,5.9911,4.6841,,7.2412,5.2329,5.6120,254.236,264.9089,210.8384,204.097,456.2802,179.0404,194.9394,0.1932,,1.8517,1.0923,-99.0,,-99.0,-99.0,24.9520,,24.9548,,0.7879,82.1211,,8.148,,2.3080E+03,,3.2935E+00,,14.6582,14.6576,0.0982,,100.924,81.021,,,,,,,,,,,,
CalCOFI,2007SR,037,39,2007_037d,19-Jul-2020 22:16:38,19-Jul-2020 14:16:38,33.65680,-118.97520,086.7 040.0,086.7,040.0,27.000,27.195,,14.6236,,14.6257,,14.6247,33.5837,,33.5839,33.5869,,33.5885,33.5862,5.7751,,6.0167,5.9296,4.6846,,7.2423,5.2339,5.5818,251.635,262.1937,208.7433,204.117,449.9185,179.0685,193.9059,0.1758,,1.6459,0.9694,-99.0,,-99.0,-99.0,24.9621,,24.9641,,0.7703,82.4820,,8.143,,2.2686E+03,,3.4484E+00,,14.6196,14.6218,0.1012,,99.817,80.973,,,,,,,,,,,,
CalCOFI,2007SR,037,39,2007_037d,19-Jul-2020 22:16:40,19-Jul-2020 14:16:40,33.65680,-118.97520,086.7 040.0,086.7,040.0,28.000,28.202,,14.5358,,14.5385,,14.5372,33.5812,,33.5814,33.5832,,33.5848,33.5831,5.7222,,5.9614,5.8751,4.6894,,7.2538,5.2428,5.5590,249.323,259.7802,206.8810,204.326,444.2637,179.3629,193.1220,0.1653,,1.5217,0.8962,-99.0,,-99.0,-99.0,24.9789,,24.9799,,0.7585,82.7272,,8.138,,2.2772E+03,,3.1776E+00,,14.5317,14.5344,0.1042,,98.726,80.914,,,,,,,,,,,,
CalCOFI,2007SR,037,39,2007_037d,19-Jul-2020 22:16:42,19-Jul-2020 14:16:42,33.65680,-118.97520,086.7 040.0,086.7,040.0,29.000,29.210,,14.4559,,14.4543,,14.4551,33.5799,,33.5801,33.5823,,33.5839,33.5820,5.6235,,5.8583,5.7733,4.6981,,7.2746,5.2591,5.5162,245.021,255.2893,203.4158,204.699,433.7416,179.8882,191.6520,0.1521,,1.3658,0.8053,-99.0,,-99.0,-99.0,24.9949,,24.9972,,0.7486,82.9323,,8.132,,2.7115E+03,,2.9460E+00,,14.4517,14.4501,0.1072,,96.867,80.925,,,,,,,,,,,,
CalCOFI,2007SR,037,39,2007_037d,19-Jul-2020 22:16:44,19-Jul-2020 14:16:44,33.65680,-118.97520,086.7 040.0,086.7,040.0,30.000,30.217,,14.3521,,14.3549,,14.3535,33.5730,,33.5732,33.5758,,33.5774,33.5753,5.4345,,5.6608,5.5785,4.7068,,7.2953,5.2753,5.4269,236.784,246.6907,196.7810,205.076,413.5951,180.4191,188.6001,0.1398,,1.2206,0.7217,-99.0,,-99.0,-99.0,25.0116,,25.0131,,0.7404,83.1016,,8.126,,2.6132E+03,,2.6839E+00,,14.3477,14.3505,0.1101,,93.414,80.910,,,,,,,,,,,,
CalCOFI,2007SR,037,39,2007_037d,19-Jul-2020 22:16:46,19-Jul-2020 14:16:46,33.65680,-118.97520,086.7 040.0,086.7,040.0,31.000,31.224,,14.1172,,14.1246,,14.1209,33.5677,,33.5679,33.5708,,33.5724,33.5702,5.3363,,5.5582,5.4773,4.7204,,7.3278,5.3007,5.3890,232.493,242.2113,193.3247,205.660,403.0999,181.2416,187.2832,0.1395,,1.2170,0.7197,-99.0,,-99.0,-99.0,25.0568,,25.0577,,0.7382,83.1479,,8.114,,2.7908E+03,,2.4873E+00,,14.1128,14.1202,0.1131,,91.288,80.765,31,13.764,,, ,,,,,,,
CalCOFI,2007SR,037,39,2007_037d,19-Jul-2020 22:16:48,19-Jul-2020 14:16:48,33.65680,-118.97520,086.7 040.0,086.7,040.0,32.000,32.232,,13.9170,,13.9206,,13.9188,33.5682,,33.5684,33.5732,,33.5748,33.5716,5.2605,,5.4790,5.3991,4.7267,,7.3429,5.3124,5.3558,229.181,238.7539,190.6569,205.926,394.9992,181.6162,186.1366,0.1351,,1.1651,0.6900,-99.0,,-99.0,-99.0,25.0989,,25.1020,,0.7374,83.1638,,8.100,,2.8257E+03,,2.3114E+00,,13.9124,13.9160,0.1160,,89.627,80.540,,,,,,,,,,,,
CalCOFI,2007SR,037,39,2007_037d,19-Jul-2020 22:16:50,19-Jul-2020 14:16:50,33.65680,-118.97520,086.7 040.0,086.7,040.0,33.000,33.239,,13.8369,,13.8434,,13.8402,33.5666,,33.5668,33.5694,,33.5710,33.5689,5.1748,,5.3894,5.3108,4.7183,,7.3228,5.2968,5.3038,225.446,234.8550,187.6484,205.558,385.8639,181.0979,184.3732,0.1350,,1.1639,0.6893,-99.0,,-99.0,-99.0,25.1142,,25.1150,,0.7398,83.1136,,8.089,,2.8065E+03,,2.1319E+00,,13.8322,13.8387,0.1189,,88.022,80.270,,,,,,,,,,,,
CalCOFI,2007SR,037,39,2007_037d,19-Jul-2020 22:16:52,19-Jul-2020 14:16:52,33.65680,-118.97520,086.7 040.0,086.7,040.0,34.000,34.246,,13.6720,,13.6744,,13.6732,33.5645,,33.5647,33.5680,,33.5696,33.5672,5.1411,,5.3542,5.2761,4.7155,,7.3161,5.2915,5.2838,223.969,233.3131,186.4587,205.428,382.2514,180.9149,183.6868,0.1299,,1.1038,0.6551,-99.0,,-99.0,-99.0,25.1465,,25.1487,,0.7331,83.2535,,8.079,,2.8029E+03,,1.9569E+00,,13.6672,13.6696,0.1217,,87.154,79.945,,,,,,,,,,,,
CalCOFI,2007SR,037,39,2007_037d,19-Jul-2020 22:16:54,19-Jul-2020 14:16:54,33.65680,-118.97520,086.7 040.0,086.7,040.0,35.000,35.254,,13.6025,,13.6058,,13.6042,33.5652,,33.5654,33.5693,,33.5709,33.5682,5.0709,,5.2809,5.2037,4.7017,,7.2832,5.2658,5.2348,220.908,230.1178,183.9931,204.824,374.7646,180.0642,182.0287,0.1240,,1.0342,0.6157,-99.0,,-99.0,-99.0,25.1613,,25.1637,,0.7305,83.3085,,8.070,,2.8095E+03,,1.7465E+00,,13.5976,13.6008,0.1246,,85.843,79.600,,,,,,,,,,,,
CalCOFI,2007SR,037,39,2007_037d,19-Jul-2020 22:16:56,19-Jul-2020 14:16:56,33.65680,-118.97520,086.7 040.0,086.7,040.0,36.000,36.261,,13.5254,,13.5291,,13.5273,33.5634,,33.5636,33.5684,,33.5700,33.5668,5.0111,,5.2184,5.1421,4.6873,,7.2488,5.2389,5.1905,218.300,227.3953,181.8924,204.194,368.3858,179.1770,180.5347,0.1209,,0.9976,0.5951,-99.0,,-99.0,-99.0,25.1756,,25.1787,,0.7295,83.3294,,8.063,,2.8244E+03,,1.5044E+00,,13.5203,13.5241,0.1274,,84.696,79.232,,,,,,,,,,,,
CalCOFI,2007SR,037,39,2007_037d,19-Jul-2020 22:16:58,19-Jul-2020 14:16:58,33.65680,-118.97520,086.7 040.0,086.7,040.0,37.000,37.268,,13.4204,,13.4221,,13.4213,33.5641,,33.5643,33.5670,,33.5686,33.5665,4.9889,,5.1952,5.1192,4.6734,,7.2156,5.2130,5.1661,217.330,226.3827,181.1111,203.584,366.0133,178.3179,179.7145,0.1142,,0.9187,0.5509,-99.0,,-99.0,-99.0,25.1974,,25.1993,,0.7233,83.4583,,8.054,,2.7135E+03,,1.3844E+00,,13.4153,13.4170,0.1302,,84.141,78.824,,,,,,,,,,,,
CalCOFI,2007SR,037,39,2007_037d,19-Jul-2020 22:17:00,19-Jul-2020 14:17:00,33.65680,-118.97520,086.7 040.0,086.7,040.0,38.000,38.275,,13.3879,,13.3878,,13.3879,33.5666,,33.5668,33.5697,,33.5713,33.5691,4.9675,,5.1728,5.0971,4.6577,,7.1781,5.1837,5.1404,216.393,225.4046,180.3564,202.897,363.7216,177.3503,178.8534,0.1125,,0.8986,0.5397,-99.0,,-99.0,-99.0,25.2060,,25.2083,,0.7197,83.5323,,8.048,,2.6792E+03,,1.3355E+00,,13.3826,13.3826,0.1330,,83.725,78.504,,,,,,,,,,,,
CalCOFI,2007SR,037,39,2007_037d,19-Jul-2020 22:17:02,19-Jul-2020 14:17:02,33.65680,-118.97520,086.7 040.0,086.7,040.0,39.000,39.283,,13.3625,,13.3655,,13.3640,33.5676,,33.5678,33.5705,,33.5721,33.5700,4.9266,,5.1301,5.0550,4.6388,,7.1330,5.1484,5.1017,214.611,223.5443,178.9210,202.072,359.3630,176.1885,177.5548,0.1119,,0.8915,0.5357,-99.0,,-99.0,-99.0,25.2119,,25.2136,,0.7249,83.4254,,8.043,,2.3697E+03,,1.2891E+00,,13.3571,13.3601,0.1357,,82.993,78.150,,,,,,,,,,,,
CalCOFI,2007SR,037,39,2007_037d,19-Jul-2020 22:17:04,19-Jul-2020 14:17:04,33.65680,-118.97520,086.7 040.0,086.7,040.0,40.000,40.290,,13.3183,,13.3195,,13.3189,33.5677,,33.5679,33.5715,,33.5731,33.5705,4.8386,,5.0382,4.9642,4.6259,,7.1022,5.1244,5.0443,210.778,219.5431,175.8336,201.511,349.9881,175.3984,175.6160,0.1093,,0.8609,0.5187,-99.0,,-99.0,-99.0,25.2209,,25.2236,,0.7144,83.6442,,8.037,,2.1132E+03,,1.2399E+00,,13.3128,13.3140,0.1385,,81.438,77.861,,,,,,,,,,,,
CalCOFI,2007SR,037,39,2007_037d,19-Jul-2020 22:17:06,19-Jul-2020 14:17:06,33.65680,-118.97520,086.7 040.0,086.7,040.0,41.000,41.298,,13.2159,,13.2190,,13.2175,33.5628,,33.5630,33.5655,,33.5671,33.5651,4.7043,,4.8978,4.8258,4.6198,,7.0876,5.1130,4.9694,204.921,213.4289,171.1158,201.242,335.6627,175.0195,173.0677,0.1075,,0.8397,0.5069,-99.0,,-99.0,-99.0,25.2377,,25.2392,,0.7136,83.6609,,8.031,,2.1775E+03,,1.1428E+00,,13.2103,13.2134,0.1413,,79.007,77.595,41,12.045,33.5945,,176.90,0.419,0.293,12.14,0.051,0.07,1.08,10.41
CalCOFI,2007SR,037,39,2007_037d,19-Jul-2020 22:17:08,19-Jul-2020 14:17:08,33.65680,-118.97520,086.7 040.0,086.7,040.0,42.000,42.305,,13.0829,,13.0876,,13.0853,33.5644,,33.5646,33.5658,,33.5674,33.5660,4.5556,,4.7424,4.6725,4.6174,,7.0819,5.1085,4.8905,198.441,206.6645,165.8963,201.133,319.8135,174.8660,170.3812,0.1236,,1.0295,0.6131,-99.0,,-99.0,-99.0,25.2655,,25.2657,,0.7168,83.5941,,8.023,,2.4919E+03,,1.0579E+00,,13.0772,13.0819,0.1440,,76.303,77.346,,,,,,,,,,,,
CalCOFI,2007SR,037,39,2007_037d,19-Jul-2020 22:17:10,19-Jul-2020 14:17:10,33.65680,-118.97520,086.7 040.0,086.7,040.0,43.000,43.312,,12.9504,,12.9548,,12.9526,33.5668,,33.5670,33.5684,,33.5700,33.5685,4.3720,,4.5506,4.4833,4.6158,,7.0781,5.1055,4.7944,190.438,198.3101,159.4500,201.055,300.2393,174.7562,167.1031,0.1148,,0.9257,0.5548,-99.0,,-99.0,-99.0,25.2937,,25.2940,,0.7170,83.5903,,8.011,,2.0377E+03,,9.9180E-01,,12.9446,12.9490,0.1467,,73.029,77.107,,,,,,,,,,,,
CalCOFI,2007SR,037,39,2007_037d,19-Jul-2020 22:17:12,19-Jul-2020 14:17:12,33.65680,-118.97520,086.7 040.0,086.7,040.0,44.000,44.320,,12.7810,,12.7891,,12.7851,33.5698,,33.5700,33.5704,,33.5720,33.5710,4.2293,,4.4015,4.3362,4.6108,,7.0662,5.0962,4.7162,184.217,191.8160,154.4391,200.830,285.0236,174.4393,164.4392,0.1151,,0.9293,0.5568,-99.0,,-99.0,-99.0,25.3293,,25.3282,,0.7115,83.7043,,7.997,,2.0088E+03,,9.4507E-01,,12.7751,12.7832,0.1494,,70.400,76.762,,,,,,,,,,,,
CalCOFI,2007SR,037,39,2007_037d,19-Jul-2020 22:17:14,19-Jul-2020 14:17:14,33.65680,-118.97520,086.7 040.0,086.7,040.0,45.000,45.327,,12.5480,,12.5539,,12.5510,33.5771,,33.5773,33.5776,,33.5792,33.5783,4.2012,,4.3721,4.3072,4.6085,,7.0607,5.0919,4.6996,182.981,190.5258,153.4435,200.722,282.0006,174.2872,163.8654,0.0906,,0.6407,0.3973,-99.0,,-99.0,-99.0,25.3804,,25.3797,,0.6886,84.1847,,7.981,,2.0494E+03,,9.1361E-01,,12.5420,12.5479,0.1521,,69.597,76.354,,,,,,,,,,,,
CalCOFI,2007SR,037,39,2007_037d,19-Jul-2020 22:17:16,19-Jul-2020 14:17:16,33.65680,-118.97520,086.7 040.0,086.7,040.0,46.000,46.334,,12.4492,,12.4548,,12.4520,33.5807,,33.5809,33.5823,,33.5839,33.5824,4.1315,,4.2993,4.2354,4.5897,,7.0158,5.0568,4.6461,179.944,187.3554,150.9972,199.899,274.5725,173.1281,162.0627,0.0881,,0.6112,0.3813,-99.0,,-99.0,-99.0,25.4023,,25.4025,,0.6874,84.2096,,7.970,,1.8119E+03,,8.7818E-01,,12.4431,12.4488,0.1547,,68.304,75.888,,,,,,,,,,,,
CalCOFI,2007SR,037,39,2007_037d,19-Jul-2020 22:17:18,19-Jul-2020 14:17:18,33.65680,-118.97520,086.7 040.0,086.7,040.0,47.000,47.342,,12.2986,,12.3026,,12.3006,33.5822,,33.5824,33.5832,,33.5848,33.5836,3.9740,,4.1347,4.0730,4.5779,,6.9876,5.0348,4.5539,173.078,180.1880,145.4668,199.380,257.7792,172.3972,158.9320,0.1047,,0.8067,0.4886,-99.0,,-99.0,-99.0,25.4324,,25.4325,,0.6845,84.2723,,7.958,,1.8951E+03,,8.5634E-01,,12.2925,12.2964,0.1572,,65.495,75.454,,,,,,,,,,,,
CalCOFI,2007SR,037,39,2007_037d,19-Jul-2020 22:17:20,19-Jul-2020 14:17:20,33.65680,-118.97520,086.7 040.0,086.7,040.0,48.000,48.349,,12.1346,,12.1365,,12.1356,33.5932,,33.5934,33.5952,,33.5968,33.5951,3.8102,,3.9636,3.9042,4.5547,,6.9322,4.9915,4.4479,165.936,172.7325,139.7140,198.359,240.3109,170.9593,155.3367,0.1113,,0.8845,0.5318,-99.0,,-99.0,-99.0,25.4723,,25.4734,,0.6782,84.4049,,7.944,,2.1329E+03,,8.1715E-01,,12.1284,12.1303,0.1598,,62.584,74.816,,,,,,,,,,,,
CalCOFI,2007SR,037,39,2007_037d,19-Jul-2020 22:17:22,19-Jul-2020 14:17:22,33.65680,-118.97520,086.7 040.0,086.7,040.0,49.000,49.357,,12.0163,,12.0235,,12.0199,33.6101,,33.6103,33.6113,,33.6129,33.6116,3.7928,,3.9454,3.8863,4.5251,,6.8616,4.9363,4.4113,165.173,171.9360,139.0994,197.064,238.4447,169.1355,154.1175,0.0648,,0.3371,0.2338,-99.0,,-99.0,-99.0,25.5077,,25.5073,,0.6754,84.4624,,7.926,,1.9168E+03,,7.7595E-01,,12.0100,12.0172,0.1623,,62.150,74.161,,,,,,,,,,,,
CalCOFI,2007SR,037,39,2007_037d,19-Jul-2020 22:17:24,19-Jul-2020 14:17:24,33.65680,-118.97520,086.7 040.0,086.7,040.0,50.000,50.364,,11.9543,,11.9586,,11.9565,33.6099,,33.6101,33.6120,,33.6136,33.6119,3.6886,,3.8365,3.7788,4.4970,,6.7945,4.8838,4.3313,160.632,167.1956,135.4417,195.838,227.3381,167.4088,151.4253,0.0656,,0.3465,0.2388,-99.0,,-99.0,-99.0,25.5194,,25.5202,,0.6770,84.4289,,7.917,,2.1736E+03,,7.4530E-01,,11.9479,11.9522,0.1648,,60.363,73.601,,,,,,,,,,,,